Location: Hains Lake
(37.8540°N, 99.8578°W)
Time: 13:11:02
(UTC+00:00)

Transit 2A - Pass Details

Date: 22 April 2021
Orbit: 602 x 957 km, 66.7° (Epoch: 13 May)

Event Time Altitude Azimuth Distance (km) Brightness Sun altitude
Rises 13:19:24 0° 220° (SW) 3,117 8.8 15.7°
Reaches altitude 10° 13:21:55 10° 226° (SW) 2,145 7.9 16.2°
Maximum altitude 13:26:34 48° 301° (WNW) 851 6.2 17.1°
Drops below altitude 10° 13:30:55 10° 17° (NNE) 2,000 8.5 18.0°
Sets 13:33:11 0° 23° (NNE) 2,884 9.3 18.4°
